Weather History for Evanston, WY

Change the Weather History Date:

Thursday, February 14, 2013

  Actual Average Record
Temperature  
Mean Temperature 22 °F 22 °F  
Max Temperature 30 °F 31 °F 41 °F (2000)
Min Temperature 14 °F 14 °F 5 °F (2001)
Degree Days  
Heating Degree Days 42 43  
Month to date heating degree days 559 604  
Since 1 July heating degree days 4914 5433  
Cooling Degree Days 0 0  
Month to date cooling degree days 0 0  
Year to date cooling degree days 0 0  
Moisture  
Dew Point 17 °F    
Average Humidity 73    
Maximum Humidity 88    
Minimum Humidity 58    
Precipitation  
Precipitation 0.00 in 0.02 in 0.31 in (2001)
Month to date precipitation 0.29 0.28  
Year to date precipitation 0.40 0.82  
Sea Level Pressure  
Sea Level Pressure 30.30 in    
Wind  
Wind Speed 12 mph (WSW)    
Max Wind Speed 17 mph    
Max Gust Speed -    
Visibility 10 miles    
Events Snow    
T = Trace of Precipitation, MM = Missing Value Source: NWS Daily Summary

Daily Weather History Graph

Daily Weather History Graph

Search for Another Location

Airport:

Trip Planner

Search our weather history database for the weather conditions in past years. The results will help you decide how hot, cold, wet, or windy it might be!

Date:

Astronomy

Feb. 14, 2013 Rise Set
Actual Time 7:19 AM MST 5:57 PM MST
Civil Twilight 6:51 AM MST 6:25 PM MST
Nautical Twilight 6:19 AM MST 6:58 PM MST
Astronomical Twilight 5:47 AM MST 7:30 PM MST
Moon 9:20 AM MST (2/14) 11:07 PM MST (2/14)
Length of Visible Light 11h 34m
Length of Day
10h 37m
Waxing Crescent, 22% of the Moon is Illuminated
Feb 14
Waxing Crescent
Feb 17
First Quarter
Feb 25
Full
Mar 4
Last Quarter
Mar 11
New

Hourly Weather History & Observations

Time (MST) Temp. Windchill Dew Point Humidity Pressure Visibility Wind Dir Wind Speed Gust Speed Precip Events Conditions
12:53 AM 25.0 °F 13.1 °F 19.9 °F 81% 30.22 in 10.0 mi SW 13.8 mph - N/A   Overcast
1:53 AM 24.1 °F 13.7 °F 21.0 °F 88% 30.21 in 7.0 mi SW 10.4 mph - 0.00 in Snow Light Snow
2:53 AM 24.1 °F 14.4 °F 21.0 °F 88% 30.22 in 6.0 mi WSW 9.2 mph - 0.00 in Snow Light Snow
3:51 AM 24.8 °F 14.0 °F 19.4 °F 80% 30.15 in 10.0 mi WSW 11.5 mph - 0.00 in   Overcast
3:53 AM 24.1 °F 13.1 °F 19.9 °F 84% 30.22 in 10.0 mi WSW 11.5 mph - 0.00 in   Overcast
4:53 AM 25.0 °F 13.1 °F 19.0 °F 78% 30.22 in 10.0 mi West 13.8 mph - N/A   Overcast
5:53 AM 25.0 °F 10.6 °F 19.0 °F 78% 30.26 in 10.0 mi West 20.7 mph - N/A   Overcast
6:00 AM 24.8 °F 11.5 °F 19.4 °F 80% 30.19 in 10.0 mi WNW 17.3 mph - N/A   Overcast
6:51 AM 24.8 °F 14.6 °F 19.4 °F 80% 30.20 in 10.0 mi West 10.4 mph - N/A   Overcast
6:53 AM 24.1 °F 14.4 °F 19.0 °F 81% 30.29 in 10.0 mi West 9.2 mph - N/A   Overcast
7:15 AM 23.0 °F 11.7 °F 17.6 °F 80% 30.20 in 10.0 mi West 11.5 mph - N/A   Overcast
7:53 AM 21.0 °F 10.6 °F 16.0 °F 81% 30.31 in 10.0 mi West 9.2 mph - N/A   Partly Cloudy
8:29 AM 23.0 °F 13.1 °F 17.6 °F 80% 30.23 in 10.0 mi West 9.2 mph - N/A   Overcast
8:53 AM 24.1 °F 12.5 °F 18.0 °F 77% 30.32 in 10.0 mi West 12.7 mph - N/A   Scattered Clouds
9:53 AM 26.1 °F 15.6 °F 19.0 °F 75% 30.33 in 10.0 mi West 11.5 mph - N/A   Clear
10:53 AM 28.0 °F 17.0 °F 19.0 °F 69% 30.34 in 10.0 mi West 13.8 mph - N/A   Scattered Clouds
11:07 AM 28.4 °F 17.0 °F 19.4 °F 69% 30.27 in 10.0 mi WSW 15.0 mph - N/A   Mostly Cloudy
11:34 AM 28.4 °F 18.0 °F 19.4 °F 69% 30.27 in 10.0 mi West 12.7 mph - N/A   Mostly Cloudy
11:53 AM 28.9 °F 19.2 °F 18.0 °F 64% 30.33 in 10.0 mi West 11.5 mph - N/A   Mostly Cloudy
12:53 PM 30.0 °F 20.5 °F 18.0 °F 61% 30.31 in 10.0 mi SW 11.5 mph - N/A   Mostly Cloudy
1:53 PM 30.0 °F 19.1 °F 17.1 °F 59% 30.31 in 10.0 mi WSW 15.0 mph - N/A   Mostly Cloudy
2:53 PM 30.9 °F 20.7 °F 19.0 °F 61% 30.31 in 10.0 mi WSW 13.8 mph - N/A   Overcast
3:53 PM 30.0 °F 20.5 °F 18.0 °F 61% 30.33 in 10.0 mi West 11.5 mph - N/A   Mostly Cloudy
4:53 PM 28.0 °F 18.1 °F 17.1 °F 63% 30.33 in 10.0 mi West 11.5 mph - N/A   Partly Cloudy
5:53 PM 23.0 °F 14.7 °F 12.9 °F 65% 30.37 in 10.0 mi West 6.9 mph - N/A   Clear
6:53 PM 19.9 °F 6.7 °F 12.0 °F 71% 30.40 in 10.0 mi West 13.8 mph - N/A   Clear
7:53 PM 17.1 °F 7.6 °F 10.9 °F 77% 30.44 in 10.0 mi WSW 6.9 mph - N/A   Clear
8:53 PM 17.1 °F 5.0 °F 12.0 °F 81% 30.42 in 10.0 mi WSW 10.4 mph - N/A   Clear
9:53 PM 16.0 °F 3.6 °F 12.0 °F 84% 30.44 in 10.0 mi WSW 10.4 mph - N/A   Clear
10:53 PM 15.1 °F 3.3 °F 10.9 °F 84% 30.44 in 10.0 mi WSW 9.2 mph - N/A   Clear
11:53 PM 14.0 °F 2.0 °F 10.9 °F 88% 30.45 in 10.0 mi SW 9.2 mph - N/A   Clear